Change the Weather History Date:

Wednesday, March 26, 2014

  Actual Average Record
Temperature  
Mean Temperature 46 °F 57 °F  
Max Temperature 61 °F 68 °F 89 °F (1928)
Min Temperature 31 °F 46 °F 20 °F (1955)
Degree Days  
Heating Degree Days 19 9  
Month to date heating degree days 449 309  
Since 1 July heating degree days 3218 2697  
Cooling Degree Days 0 1  
Month to date cooling degree days 0 11  
Year to date cooling degree days 0 14  
Moisture  
Dew Point 28 °F    
Average Humidity 52    
Maximum Humidity 75    
Minimum Humidity 29    
Precipitation  
Precipitation T in 0.16 in 5.00 in (1934)
Month to date precipitation 3.56 4.56  
Year to date precipitation 8.99 12.38  
Snow  
Snow 0.00 in 0.00 in - ()
Month to date snowfall T 0.0  
Since 1 July snowfall 3.7 3.1  
Snow Depth 0.00 in    
Sea Level Pressure  
Sea Level Pressure 30.24 in    
Wind  
Wind Speed 8 mph (ESE)    
Max Wind Speed 20 mph    
Max Gust Speed 25 mph    
Visibility 10 miles    
Events Rain    
T = Trace of Precipitation, MM = Missing Value Source: NWS Daily Summary

Daily Weather History Graph

Daily Weather History Graph

Search for Another Location

Airport or City:

Trip Planner

Search our weather history database for the weather conditions in past years. The results will help you decide how hot, cold, wet, or windy it might be!

Date:

Astronomy

Mar. 26, 2014 Rise Set
Actual Time 7:03 AM CDT 7:24 PM CDT
Civil Twilight 6:38 AM CDT 7:49 PM CDT
Nautical Twilight 6:08 AM CDT 8:18 PM CDT
Astronomical Twilight 5:38 AM CDT 8:48 PM CDT
Moon 4:00 AM CDT (3/26) 3:13 PM CDT (3/26)
Length of Visible Light 13h 11m
Length of Day
12h 20m
Waning Crescent, 21% of the Moon is Illuminated
Mar 26
Waning Crescent
Mar 30
New
Apr 7
First Quarter
Apr 15
Full
Apr 22
Last Quarter

Hourly Weather History & Observations

Time (CDT) Temp. Windchill Dew Point Humidity Pressure Visibility Wind Dir Wind Speed Gust Speed Precip Events Conditions
12:53 AM 39.9 °F 37.8 °F 23.0 °F 51% 30.31 in 10.0 mi ENE 3.5 mph - N/A   Clear
1:53 AM 37.9 °F - 24.1 °F 57% 30.31 in 10.0 mi Calm Calm - N/A   Clear
2:53 AM 35.1 °F - 26.1 °F 70% 30.32 in 10.0 mi Calm Calm - N/A   Clear
3:53 AM 33.1 °F 30.0 °F 27.0 °F 78% 30.30 in 10.0 mi NE 3.5 mph - N/A   Clear
4:53 AM 34.0 °F 31.0 °F 27.0 °F 75% 30.30 in 10.0 mi East 3.5 mph - N/A   Clear
5:53 AM 34.0 °F 28.8 °F 25.0 °F 70% 30.30 in 10.0 mi ENE 5.8 mph - N/A   Clear
6:53 AM 35.1 °F - 24.1 °F 64% 30.33 in 10.0 mi Calm Calm - N/A   Clear
7:53 AM 35.1 °F 30.1 °F 28.0 °F 76% 30.34 in 10.0 mi East 5.8 mph - N/A   Clear
8:53 AM 41.0 °F 36.4 °F 28.0 °F 60% 30.37 in 10.0 mi SE 6.9 mph - N/A   Clear
9:53 AM 46.0 °F 40.2 °F 25.0 °F 44% 30.37 in 10.0 mi ESE 12.7 mph - N/A   Clear
10:53 AM 50.0 °F - 25.0 °F 38% 30.35 in 10.0 mi ESE 13.8 mph - N/A   Clear
11:53 AM 52.0 °F - 24.1 °F 34% 30.33 in 10.0 mi SE 10.4 mph 16.1 mph N/A   Clear
12:53 PM 55.0 °F - 24.1 °F 30% 30.28 in 10.0 mi SE 9.2 mph - N/A   Clear
1:53 PM 57.0 °F - 28.0 °F 33% 30.25 in 10.0 mi ESE 13.8 mph - N/A   Clear
2:53 PM 57.9 °F - 28.9 °F 33% 30.21 in 10.0 mi ESE 15.0 mph 20.7 mph N/A   Clear
3:53 PM 59.0 °F - 28.9 °F 32% 30.17 in 10.0 mi SE 16.1 mph - N/A   Clear
4:53 PM 60.1 °F - 28.0 °F 30% 30.15 in 10.0 mi SE 9.2 mph - N/A   Clear
5:53 PM 57.9 °F - 28.0 °F 32% 30.13 in 10.0 mi SE 12.7 mph - N/A   Scattered Clouds
6:53 PM 57.0 °F - 28.9 °F 34% 30.14 in 10.0 mi SSE 9.2 mph - N/A   Mostly Cloudy
7:53 PM 54.0 °F - 34.0 °F 47% 30.12 in 10.0 mi ESE 9.2 mph - N/A   Overcast
8:53 PM 53.1 °F - 34.0 °F 48% 30.12 in 10.0 mi SE 6.9 mph - N/A   Overcast
9:53 PM 52.0 °F - 35.1 °F 53% 30.11 in 10.0 mi SE 8.1 mph - N/A   Overcast
10:53 PM 54.0 °F - 30.0 °F 40% 30.08 in 10.0 mi SE 12.7 mph - 0.00 in   Overcast
11:53 PM 53.1 °F - 33.1 °F 47% 30.07 in 10.0 mi SE 5.8 mph - 0.00 in Rain Light Rain